Temp
75 69 66 69 73 75 71 68 71 73 80 75 69 71 75 79 80 78 76 76 79 79 82 85 86 87 84 84 80 82 79 77 77 74 75 73 72 73 73 73 75 75 74 76
70 65 77 78 78 74 72 69 67 77 81 75 68 70 77 77 79 79 78 78 80 79 82 83 85 84 83 83 81 80 80 79 79 78 76 76 74 73 74 75 75 75 75 75
64 74 82 79 75 71 66 67 65 71 78 73 71 66 70 75 79 80 79 80 82 80 82 81 81 83 84 82 79 79 79 79 80 79 76 76 74 70 71 71 71 74 77 76
68 79 80 74 73 71 58 78 79 76 69 57 71 53 58 68 71 75 77 79 82 82 85 85 79 82 84 84 84 80 80 80 80 78 76 76 74 71 69 74 73 75 78 76
70 73 73 72 77 79 74 80 82 77 67 63 67 56 59 64 67 71 75 79 83 84 86 85 83 84 86 87 85 81 81 80 82 78 78 76 74 75 75 74 72 80 77 77
73 78 77 77 82 81 81 77 71 69 64 51 66 60 58 64 69 75 81 81 84 86 86 87 87 87 85 86 85 83 80 80 80 78 78 76 75 75 74 75 74 76 75 74
69 72 76 81 69 74 73 62 52 51 52 54 57 62 62 73 78 79 81 81 85 86 85 86 86 85 84 84 84 83 79 78 79 78 78 77 77 75 75 76 75 75 74 71
57 60 70 78 74 70 64 63 54 49 50 54 57 59 67 76 80 80 80 80 84 85 87 86 88 87 85 85 84 83 80 79 79 78 77 77 77 75 75 77 76 75 76 75
55 60 75 77 76 77 66 61 66 57 49 52 56 64 73 74 77 77 78 80 82 84 87 88 88 89 85 85 84 83 81 80 79 80 77 76 77 77 75 77 77 77 77 78
64 58 69 76 75 74 73 71 60 53 48 47 54 57 60 69 72 75 77 79 77 79 83 88 87 89 87 87 86 85 83 81 80 80 78 79 77 77 77 76 77 77 77 77
64 61 69 67 66 68 67 61 59 59 53 50 48 55 68 73 73 77 75 80 76 79 78 82 81 85 88 88 86 85 82 81 79 79 77 77 77 80 77 77 78 75 77 75
70 60 57 66 71 73 71 70 61 54 54 51 52 59 75 78 79 79 80 78 78 87 81 82 81 84 88 87 84 77 81 81 79 79 79 78 78 77 77 76 79 79 78 76
71 58 57 61 66 68 68 65 60 57 53 54 53 58 74 72 76 80 79 78 81 84 81 79 89 85 86 87 84 75 79 81 79 79 80 79 78 76 76 76 76 78 79 77
73 59 60 55 62 64 64 71 68 62 54 52 57 62 68 75 75 78 75 78 80 81 82 82 87 78 79 84 83 77 79 80 80 80 79 79 77 77 77 76 77 78 77 77
70 62 59 62 69 72 72 72 74 65 63 61 66 67 68 75 76 77 76 78 79 81 81 75 74 77 79 78 82 80 79 78 79 77 77 78 75 77 76 75 76 77 76 77
66 62 57 63 71 72 71 73 73 70 70 62 66 68 73 74 76 78 78 78 78 78 76 76 75 78 80 79 79 79 76 76 78 75 75 75 75 75 74 73 74 75 77 77
63 60 56 55 65 66 62 71 71 73 74 73 65 72 74 73 73 71 75 78 79 79 78 78 80 81 83 82 80 77 77 77 76 75 75 75 74 74 74 75 75 76 76 76
66 59 54 55 56 51 68 72 76 75 75 74 71 73 73 68 67 70 71 74 77 78 79 81 81 79 80 81 80 79 79 77 76 76 74 74 74 75 75 76 76 75 75 74
67 60 57 56 50 61 72 74 73 70 70 74 73 75 75 74 75 69 71 73 70 71 71 77 80 80 80 81 80 79 77 76 74 73 73 75 75 75 75 74 75 73 73 73
65 63 62 53 52 52 66 76 77 75 63 77 75 76 76 74 64 62 68 77 75 76 76 72 81 81 80 79 80 78 76 74 73 74 75 76 76 75 74 73 73 73 73 73
59 57 57 53 55 61 64 71 75 62 64 73 77 72 71 70 68 67 69 73 75 74 75 73 76 79 79 79 78 74 74 74 75 76 75 75 75 74 73 73 73 73 73 73
59 56 54 53 52 54 69 74 66 69 71 76 73 70 65 64 65 67 70 72 72 72 73 72 68 76 76 76 77 73 74 74 75 75 74 73 73 76 75 74 73 73 71 71
57 60 58 60 59 66 67 66 70 73 73 77 70 69 70 68 67 68 67 69 69 71 71 73 68 73 75 75 76 76 74 76 75 74 73 73 74 74 74 73 72 71 71 70
60 60 59 61 64 65 68 69 73 74 72 79 75 72 73 70 68 68 68 69 69 71 75 76 70 75 74 75 76 78 76 74 74 72 71 71 71 72 72 73 72 70 70 67
59 60 59 57 61 64 73 71 70 73 75 76 77 75 74 71 68 70 68 69 68 69 69 69 72 77 74 74 75 75 75 74 72 71 70 71 72 71 70 70 69 71 66 65
58 59 57 58 61 60 66 72 73 70 70 73 74 74 74 73 71 70 68 69 70 70 71 72 71 73 72 72 71 71 74 75 73 70 70 68 68 67 69 70 71 56 56 55
MSLP
1004.55 1005.71 1006.46 1007.32 1007.82 1008.24 1008.57 1009.03 1008.50 1007.85 1007.97 1008.77 1009.45 1009.31 1009.53 1010.09 1010.27 1010.78 1010.94 1010.81 1010.61 1010.47 1010.32 1010.81 1011.21 1011.77 1012.49 1013.12 1013.83 1014.24 1014.91 1015.33 1015.89 1016.39 1016.87 1017.45 1017.90 1017.75 1017.83 1017.29 1017.35 1017.06 1017.25 1017.52
1005.39 1005.60 1005.19 1006.09 1007.14 1007.69 1008.21 1008.35 1008.25 1007.39 1008.12 1008.57 1009.59 1009.47 1009.58 1009.76 1009.79 1010.21 1010.46 1010.51 1010.41 1010.36 1010.42 1010.79 1011.21 1011.64 1011.95 1012.61 1013.46 1014.11 1014.50 1015.08 1015.63 1016.03 1016.43 1016.80 1017.19 1017.54 1017.37 1017.17 1017.36 1017.24 1017.20 1017.37
1005.80 1004.63 1004.65 1005.51 1006.73 1007.40 1007.75 1007.61 1007.56 1008.16 1008.78 1009.66 1010.25 1010.51 1010.13 1009.29 1009.93 1010.01 1010.11 1010.04 1009.93 1009.97 1010.21 1010.59 1011.00 1011.25 1011.74 1012.38 1013.08 1013.66 1014.23 1014.69 1015.15 1015.63 1016.25 1016.75 1017.30 1017.68 1017.94 1017.80 1017.61 1017.16 1017.07 1017.21
1005.53 1004.17 1004.49 1004.75 1005.56 1006.13 1006.91 1006.15 1006.67 1007.25 1008.86 1010.25 1011.07 1011.19 1010.33 1009.51 1009.09 1008.76 1008.98 1009.27 1009.29 1009.55 1009.65 1009.90 1010.59 1011.03 1011.39 1011.76 1012.44 1013.14 1013.79 1014.29 1014.69 1015.17 1015.82 1016.33 1016.85 1017.50 1017.45 1017.21 1017.20 1017.13 1016.84 1017.01
1004.59 1003.95 1003.92 1004.10 1003.86 1004.59 1004.91 1005.25 1005.19 1006.15 1009.01 1010.14 1009.82 1010.70 1009.66 1009.13 1008.76 1008.67 1007.91 1008.13 1008.25 1008.48 1008.86 1009.23 1009.90 1010.26 1010.60 1011.36 1012.06 1012.60 1013.34 1014.09 1014.49 1014.88 1015.23 1015.98 1016.52 1016.55 1016.69 1017.02 1016.98 1016.95 1016.55 1016.35
1004.42 1003.56 1003.55 1002.93 1002.67 1002.99 1003.27 1004.91 1005.93 1007.56 1009.10 1010.57 1009.54 1009.21 1009.01 1007.86 1005.83 1005.91 1006.24 1006.84 1007.13 1007.74 1008.36 1008.55 1009.00 1009.56 1010.29 1011.12 1011.75 1012.37 1013.13 1013.65 1014.13 1014.50 1014.81 1015.51 1016.23 1016.39 1016.52 1016.41 1016.87 1016.77 1016.65 1016.78
1004.54 1003.56 1002.78 1002.29 1002.50 1002.69 1003.91 1005.89 1007.53 1009.08 1010.19 1009.14 1008.13 1008.00 1006.25 1005.00 1004.53 1005.26 1005.39 1006.05 1006.55 1007.16 1007.65 1007.92 1008.51 1009.20 1009.95 1010.60 1011.26 1011.94 1012.61 1013.35 1013.73 1014.10 1014.53 1015.00 1015.51 1016.07 1016.33 1016.35 1016.57 1016.80 1017.02 1017.08
1005.20 1003.87 1002.42 1001.64 1001.94 1002.32 1003.28 1004.82 1006.72 1008.32 1009.14 1008.75 1007.94 1007.05 1004.77 1003.54 1004.04 1004.99 1005.23 1005.46 1006.18 1006.79 1007.09 1007.43 1007.71 1008.22 1009.15 1009.95 1010.65 1011.37 1011.95 1012.78 1013.36 1013.74 1014.14 1014.59 1015.09 1015.51 1015.73 1015.90 1016.22 1016.52 1016.67 1016.66
1004.87 1003.83 1002.41 1001.75 1001.71 1001.98 1003.02 1004.33 1005.45 1007.27 1008.56 1009.01 1007.89 1006.35 1004.30 1003.63 1004.21 1004.80 1004.83 1004.81 1005.44 1006.01 1006.51 1006.92 1007.26 1008.02 1008.47 1009.19 1009.73 1010.50 1011.27 1012.07 1012.75 1013.16 1013.84 1014.38 1014.78 1015.21 1015.46 1015.55 1015.82 1016.20 1016.21 1016.15
1003.97 1004.22 1002.56 1001.92 1001.73 1001.87 1002.33 1003.42 1005.53 1007.51 1008.76 1009.03 1007.85 1006.49 1005.05 1004.03 1004.01 1004.00 1004.09 1004.92 1006.21 1006.73 1007.19 1006.67 1006.81 1007.53 1007.95 1008.22 1008.97 1010.22 1011.00 1011.31 1011.70 1012.75 1013.30 1013.80 1014.38 1014.81 1015.05 1015.35 1015.59 1015.71 1015.74 1015.83
1003.46 1004.08 1002.94 1002.76 1002.40 1002.15 1002.64 1003.60 1005.24 1006.87 1007.92 1008.37 1007.82 1006.16 1003.11 1002.83 1003.17 1003.22 1003.52 1004.30 1005.45 1005.68 1006.04 1006.45 1007.29 1007.53 1006.78 1007.71 1009.08 1009.97 1011.23 1012.00 1012.04 1012.46 1012.91 1013.47 1014.06 1014.42 1014.74 1015.01 1015.21 1015.44 1015.61 1015.71
1002.43 1003.65 1004.01 1003.21 1001.85 1001.63 1001.47 1002.48 1004.23 1006.77 1007.51 1007.60 1006.68 1004.25 1001.73 1001.55 1002.00 1002.45 1002.63 1004.05 1004.03 1003.61 1004.65 1005.87 1006.55 1006.73 1007.11 1007.21 1009.80 1010.91 1011.89 1011.75 1012.05 1012.02 1012.45 1013.04 1013.55 1013.89 1014.30 1014.63 1014.74 1015.02 1015.37 1015.47
1002.01 1003.31 1003.93 1003.61 1002.56 1001.59 1001.92 1002.31 1003.20 1004.69 1005.94 1006.26 1006.16 1003.63 1001.77 1001.93 1002.30 1001.95 1002.64 1003.18 1003.50 1004.20 1004.78 1005.67 1005.04 1005.84 1006.96 1007.63 1008.36 1010.03 1011.43 1011.92 1011.71 1011.83 1012.12 1012.67 1013.23 1013.59 1013.91 1014.22 1014.51 1014.58 1014.81 1015.15
1000.65 1002.58 1003.50 1003.76 1003.07 1002.38 1002.01 1002.04 1002.45 1003.39 1005.07 1005.23 1004.61 1002.92 1001.74 1001.54 1002.33 1002.33 1003.23 1003.33 1003.57 1004.15 1004.59 1005.92 1005.95 1006.65 1007.09 1008.05 1008.93 1009.31 1010.52 1011.26 1011.37 1011.64 1012.13 1012.52 1012.92 1013.28 1013.57 1013.86 1014.11 1014.37 1014.61 1014.71
1001.47 1002.98 1003.08 1002.84 1002.61 1002.14 1001.64 1001.59 1001.37 1002.22 1002.39 1003.40 1002.99 1002.23 1001.51 1001.38 1001.23 1002.05 1002.69 1003.71 1004.10 1004.56 1004.93 1005.82 1005.70 1006.50 1006.54 1007.25 1008.07 1009.21 1010.07 1010.93 1010.95 1011.36 1011.94 1012.26 1012.57 1013.04 1013.55 1013.82 1013.88 1014.12 1014.40 1014.44
1002.63 1003.29 1003.23 1002.92 1002.23 1001.65 1001.29 1000.62 1000.19 1000.55 1000.91 1001.44 1001.71 1001.81 1000.93 1001.48 1001.02 1002.37 1003.00 1003.69 1004.10 1004.23 1004.41 1004.95 1005.40 1006.01 1006.44 1006.99 1007.51 1008.90 1009.85 1010.52 1010.95 1011.42 1011.95 1012.33 1012.58 1012.92 1013.39 1013.74 1013.92 1014.10 1014.27 1014.33
1003.41 1003.91 1004.09 1003.85 1002.81 1002.29 1001.49 1000.07 999.89 999.55 999.72 1000.10 1001.24 1000.64 1000.73 1002.19 1003.12 1003.72 1003.89 1003.78 1003.50 1003.27 1003.75 1004.52 1005.29 1006.06 1006.48 1007.30 1007.61 1008.86 1009.57 1010.46 1011.18 1011.70 1011.98 1012.17 1012.55 1012.99 1013.32 1013.61 1013.82 1013.99 1014.26 1014.45
1003.30 1004.17 1004.53 1004.63 1003.80 1003.05 1000.91 999.42 999.39 999.35 999.40 999.33 999.80 1000.14 1001.02 1002.74 1004.06 1004.20 1004.27 1003.93 1004.66 1004.67 1004.57 1004.51 1004.97 1005.98 1006.69 1007.17 1008.31 1008.80 1009.54 1010.53 1011.30 1011.85 1012.11 1012.44 1012.81 1013.11 1013.31 1013.53 1013.87 1014.01 1014.17 1014.30
1002.98 1004.01 1004.89 1005.03 1004.69 1003.35 1000.96 999.77 999.37 998.99 999.35 999.15 999.49 1000.75 1001.76 1002.79 1003.11 1004.69 1004.44 1003.99 1004.41 1005.15 1005.67 1006.04 1005.70 1005.64 1006.77 1007.36 1008.13 1009.05 1009.96 1010.50 1011.19 1011.77 1012.13 1012.48 1012.84 1013.14 1013.32 1013.58 1013.91 1014.07 1014.11 1014.21
1002.89 1003.61 1004.80 1005.43 1005.15 1003.90 1001.57 1000.01 999.25 999.28 999.79 999.70 999.92 1000.78 1001.49 1002.13 1004.19 1005.37 1005.13 1004.79 1004.46 1004.91 1005.31 1006.04 1006.55 1005.83 1006.78 1007.77 1008.43 1009.26 1010.13 1010.69 1011.24 1011.60 1011.97 1012.29 1012.75 1013.13 1013.31 1013.59 1013.93 1013.80 1013.84 1014.06
1003.95 1004.51 1005.09 1005.17 1004.75 1003.47 1002.72 1001.37 1000.38 1000.65 1000.89 1000.00 1000.14 1001.52 1002.32 1002.95 1003.49 1003.91 1004.73 1004.85 1004.59 1004.76 1005.03 1006.01 1007.21 1007.97 1007.36 1008.04 1008.92 1009.72 1010.24 1010.66 1010.99 1011.64 1012.03 1012.30 1012.62 1012.93 1013.10 1013.44 1013.55 1013.76 1013.99 1014.13
1004.91 1005.23 1005.64 1005.52 1004.89 1003.79 1002.62 1001.37 1001.87 1002.19 1000.38 1000.07 1000.30 1001.75 1003.11 1003.49 1004.03 1004.67 1005.01 1004.62 1004.93 1004.54 1004.68 1005.93 1007.92 1009.08 1008.49 1008.46 1009.14 1009.61 1010.17 1010.36 1011.30 1011.76 1012.22 1012.77 1012.71 1012.93 1013.21 1013.31 1013.51 1013.68 1014.10 1014.39
1005.59 1005.45 1005.35 1005.18 1004.92 1003.86 1003.38 1003.27 1002.40 1002.21 1001.96 1001.46 1000.20 1002.04 1002.66 1003.86 1004.77 1004.97 1005.03 1004.84 1005.20 1005.74 1005.30 1006.45 1008.05 1008.84 1009.37 1008.93 1009.25 1009.60 1009.90 1010.24 1011.22 1011.91 1012.46 1012.78 1012.82 1012.84 1013.04 1013.33 1013.52 1013.84 1014.24 1014.31
1006.23 1005.70 1005.55 1005.67 1004.64 1004.27 1003.11 1003.54 1002.89 1003.08 1003.68 1002.61 1002.01 1001.63 1003.01 1003.80 1004.90 1005.14 1005.43 1004.77 1005.52 1006.05 1006.46 1007.09 1008.78 1009.45 1009.09 1008.96 1009.20 1009.39 1009.52 1009.85 1010.87 1011.76 1012.01 1012.57 1012.83 1012.98 1013.15 1013.34 1013.61 1014.01 1014.32 1014.65
1006.69 1006.28 1006.08 1006.01 1005.21 1004.18 1002.62 1002.52 1002.84 1002.75 1003.11 1003.53 1003.99 1002.60 1002.62 1003.52 1004.67 1005.05 1005.57 1005.57 1006.10 1005.99 1007.19 1008.08 1009.42 1009.17 1008.89 1009.34 1009.47 1009.71 1010.09 1010.60 1011.29 1012.27 1012.53 1012.92 1013.09 1013.15 1013.43 1013.74 1013.97 1014.26 1014.94 1014.83
1006.81 1006.43 1006.30 1005.68 1004.95 1004.99 1003.55 1002.61 1002.96 1002.09 1002.87 1004.75 1004.26 1003.58 1003.04 1003.32 1003.92 1004.71 1005.83 1005.79 1006.71 1007.33 1007.68 1008.13 1008.59 1009.45 1009.62 1010.06 1010.71 1010.51 1010.55 1010.47 1011.47 1012.58 1012.73 1013.18 1013.37 1013.57 1013.69 1014.10 1014.90 1015.65 1015.84 1015.85
Wind_Speed
3 4 7 12 9 6 8 12 13 15 10 5 5 6 12 10 12 11 9 8 10 8 8 16 16 15 13 14 13 14 12 8 6 3 3 3 4 3 2 3 5 5 5 3
6 6 12 4 14 15 12 10 6 6 6 7 5 5 9 6 12 14 13 11 12 6 11 10 14 14 15 16 12 13 13 12 8 5 3 3 4 3 1 2 4 6 5 5
7 13 4 6 12 11 5 6 3 7 7 8 8 3 7 5 4 9 9 11 11 12 16 10 13 16 15 14 12 13 12 13 10 7 3 4 4 4 1 2 4 5 5 4
7 11 8 5 8 9 6 7 8 6 7 5 6 6 7 3 7 10 12 14 14 12 16 15 12 15 17 16 13 13 13 14 11 9 6 6 4 5 5 4 4 5 7 7
11 4 5 5 13 13 14 14 11 8 15 5 6 4 9 5 11 11 15 15 17 16 20 17 16 19 18 16 14 13 14 12 11 9 8 6 5 3 3 4 6 6 6 5
9 3 5 10 7 8 9 12 7 5 5 1 13 7 6 11 27 20 18 15 20 17 19 18 17 18 16 14 13 12 14 13 11 10 8 8 8 6 2 1 4 3 2 2
8 8 6 5 2 2 9 8 0 1 4 8 5 3 9 23 19 11 19 16 21 18 16 18 18 16 16 17 15 13 13 13 11 11 9 8 8 7 7 5 4 5 3 2
4 10 3 3 7 8 3 9 8 5 3 5 3 6 8 13 13 6 6 10 14 18 17 18 19 17 19 19 17 16 15 12 11 10 9 8 7 4 5 5 4 4 4 6
5 9 5 3 3 9 6 3 8 6 2 3 4 7 10 5 8 7 9 12 16 16 18 17 16 18 15 19 20 19 16 14 12 13 7 8 7 7 6 7 5 5 5 5
7 3 5 8 0 3 8 5 2 5 3 4 5 4 6 5 9 8 10 12 7 6 2 11 11 16 15 20 19 17 16 18 16 12 10 9 8 7 6 5 5 5 5 3
8 5 12 1 5 11 1 2 5 7 7 7 3 9 10 12 12 14 10 9 15 12 7 4 2 11 18 18 17 16 13 13 10 11 10 8 7 9 7 5 5 4 5 6
11 7 5 11 6 6 9 13 8 7 6 2 5 9 4 11 15 12 16 15 12 15 12 8 9 6 13 18 17 13 11 13 11 11 11 10 9 7 7 7 8 6 6 6
7 2 4 12 10 5 5 4 6 6 5 5 6 9 2 9 8 12 9 10 17 20 17 15 14 9 9 13 18 20 15 11 11 11 11 9 9 7 7 7 6 6 6 7
9 5 8 9 10 4 2 5 5 8 5 3 7 8 4 8 12 8 12 13 17 23 23 17 16 6 7 10 20 29 21 11 11 11 10 9 8 8 7 7 6 6 5 6
6 5 5 5 6 5 6 9 14 8 8 8 9 5 3 8 12 17 18 17 19 20 18 10 10 9 8 9 13 11 10 10 9 9 9 9 6 6 6 5 5 5 4 4
6 3 2 6 6 7 7 7 9 5 4 3 8 7 8 5 10 14 19 18 17 17 11 7 4 7 11 12 12 10 9 8 9 7 7 7 7 7 6 6 5 4 3 3
3 2 4 6 5 5 6 7 3 6 6 7 7 11 7 4 10 8 8 10 15 15 13 14 13 13 13 13 14 13 12 9 8 8 7 7 6 6 5 4 4 4 3 2
4 2 2 3 6 4 13 6 4 5 2 5 4 7 8 15 9 10 5 11 7 1 5 10 12 11 11 12 12 12 12 9 10 9 7 6 6 6 5 4 3 2 1 3
8 5 0 3 4 6 10 6 2 5 6 4 7 18 18 15 12 7 4 10 17 13 9 6 6 15 13 14 13 12 10 10 8 7 6 6 6 6 5 5 3 3 3 1
3 5 6 3 2 5 10 5 2 4 3 7 6 10 18 6 6 5 4 9 15 15 12 11 5 11 13 10 11 13 11 9 7 7 7 6 6 6 6 6 6 3 2 1
4 4 2 1 5 8 4 11 6 4 10 3 6 2 4 6 4 7 6 4 6 12 16 13 10 4 10 11 10 10 8 8 7 7 6 6 7 7 7 6 2 2 0 2
4 4 1 2 2 2 6 7 2 4 6 9 4 6 9 9 6 5 5 6 4 10 14 13 8 5 5 9 11 10 9 8 7 7 7 6 7 5 4 6 3 1 1 3
1 4 6 7 7 5 4 5 8 4 5 11 12 11 14 12 6 7 7 6 6 6 4 10 4 6 4 7 7 11 8 11 9 8 8 6 5 5 5 4 2 1 2 1
4 4 4 4 4 5 9 3 8 11 11 13 4 20 16 16 7 6 8 7 5 1 6 7 5 7 6 7 8 8 11 10 10 9 8 5 5 4 1 1 2 1 3 3
5 3 2 3 7 9 8 5 4 11 10 17 5 14 13 17 10 10 9 7 6 9 6 5 10 9 7 4 5 6 7 8 8 6 4 3 3 3 3 4 4 5 5 3
4 6 5 7 7 4 9 5 5 9 13 6 9 9 7 14 18 11 10 10 10 6 9 11 6 10 9 10 9 6 4 8 9 5 5 4 4 3 4 7 9 19 14 19
Wind_Direction
250 100 214 185 191 186 155 140 187 198 201 138 222 128 176 183 178 195 205 208 208 196 187 168 171 171 160 164 158 168 160 176 160 149 173 118 167 182 192 255 206 223 221 227
350 214 231 195 149 149 159 168 232 318 173 141 189 183 163 195 202 193 200 207 205 174 165 161 163 163 168 170 164 165 170 169 177 174 168 149 156 183 174 235 230 231 222 220
169 246 220 185 141 155 190 213 167 99 43 357 131 352 238 195 171 210 212 206 200 178 174 177 163 169 169 170 165 170 170 168 174 185 125 89 91 51 38 248 268 250 227 224
211 255 236 241 175 139 191 185 169 154 125 188 273 226 289 184 228 201 195 199 198 184 183 181 169 172 176 182 168 163 167 169 176 172 152 152 166 161 212 203 216 218 203 182
247 254 248 238 237 171 214 187 199 130 189 121 234 109 268 168 255 219 211 202 195 191 187 187 178 181 186 177 179 169 170 171 178 181 165 177 176 213 173 167 217 186 219 202
237 242 172 215 257 189 164 178 38 83 104 271 228 151 250 201 221 210 207 189 192 195 191 192 188 181 181 180 178 169 171 184 184 178 177 176 189 177 157 168 172 194 194 221
315 281 267 209 23 18 116 76 282 144 173 214 230 150 224 222 218 210 184 185 188 193 187 194 188 185 179 180 181 178 177 187 190 186 178 182 192 179 181 189 183 174 168 218
188 312 177 225 172 185 154 136 149 194 206 265 349 239 259 224 206 114 102 152 176 187 197 192 199 184 184 181 182 183 184 188 189 190 186 176 179 181 195 185 167 196 196 205
171 265 326 284 253 130 265 158 184 124 67 68 250 291 316 114 128 136 163 159 182 186 192 197 197 199 177 182 185 186 184 190 189 195 169 177 180 183 195 205 176 190 207 202
218 292 219 291 142 268 156 177 67 12 183 240 277 269 240 180 189 210 212 178 107 75 318 213 193 198 185 185 185 186 188 188 188 175 181 184 180 185 195 190 218 215 216 175
144 125 277 207 204 191 71 289 71 121 138 170 192 260 212 200 191 202 224 152 141 144 102 215 210 227 187 179 177 184 184 194 176 176 173 166 175 187 192 194 205 202 203 190
196 160 215 233 269 236 171 199 137 123 261 208 155 271 237 182 182 188 201 126 152 159 171 185 141 207 222 171 119 224 219 189 182 169 173 173 179 180 191 197 206 190 202 198
173 246 285 333 348 7 200 200 151 120 79 225 133 260 326 111 192 210 132 161 166 171 183 229 192 201 203 177 154 99 261 207 178 166 173 178 182 178 191 202 216 216 204 204
105 122 160 196 209 203 314 281 243 134 119 192 218 269 221 177 173 218 137 159 165 173 188 204 194 185 193 186 150 167 204 184 175 168 176 182 184 181 190 205 209 208 220 236
100 184 182 215 229 220 220 223 245 175 192 152 241 299 208 210 161 162 157 158 161 175 197 179 154 183 183 162 148 156 161 165 162 160 168 185 162 157 166 197 196 198 231 252
360 267 136 310 314 355 311 297 261 222 211 202 169 225 217 305 109 141 159 166 173 195 182 192 181 181 173 163 144 140 140 139 145 142 146 142 162 172 186 192 203 200 210 228
38 40 54 276 339 5 342 265 236 221 242 184 164 220 152 77 61 55 93 175 188 197 185 183 189 184 167 157 145 146 140 139 135 136 157 164 160 169 178 175 167 196 244 263
264 76 114 251 36 357 245 286 245 226 222 288 141 176 98 119 106 77 75 117 95 86 184 161 153 141 148 139 128 126 133 136 140 156 154 150 153 165 173 164 199 219 237 245
167 124 170 136 170 286 315 318 270 119 312 335 148 117 125 137 93 31 2 98 108 92 63 14 149 136 130 135 135 134 139 145 145 154 165 162 163 171 165 164 170 168 144 91
95 126 132 92 154 233 244 282 308 302 342 347 103 132 150 149 103 232 244 133 110 92 75 43 10 127 131 137 141 140 152 150 149 150 166 163 171 156 145 142 161 157 122 142
359 7 110 157 213 273 356 297 327 121 222 246 112 38 151 149 197 151 187 234 107 101 89 60 28 269 150 137 140 143 145 146 142 136 133 138 145 142 145 148 139 148 177 296
179 132 164 82 2 266 7 350 4 294 288 129 93 113 103 125 115 122 158 210 132 93 92 80 36 274 147 138 142 139 140 133 124 128 126 134 133 144 143 144 164 177 312 318
349 182 183 150 215 247 290 222 271 348 277 308 128 132 138 134 125 152 137 114 111 42 110 83 72 300 195 126 145 146 150 131 139 131 135 149 139 137 154 157 214 329 21 331
346 333 79 31 267 271 271 158 44 33 27 344 251 143 145 135 141 129 148 193 114 148 200 145 25 252 171 160 160 162 152 147 145 147 155 144 153 168 187 257 58 67 66 77
223 350 149 289 288 312 275 102 8 18 5 29 59 159 152 139 158 140 150 175 194 172 139 110 238 200 168 154 154 146 128 124 118 134 146 138 127 127 82 78 68 83 40 86
183 184 167 219 222 190 265 305 255 52 21 29 38 257 174 161 159 145 140 176 182 177 183 198 136 118 92 69 40 47 61 135 123 146 135 141 124 110 107 98 88 44 94 82